Olean, NY

1:13 AM EDT on April 22, 2018 (GMT -0400)
Cattaraugus County-Olean

Weather History for KOLE - August, 2013

Change the Weather History Date:

Saturday, August 24, 2013

  Actual Average (KBFD) Record (KBFD)
Temperature  
Mean Temperature 60 °F -  
Max Temperature 71 °F 73 °F 84 °F (1972)
Min Temperature 48 °F 52 °F 33 °F (1971)
Degree Days  
Heating Degree Days 6    
Growing Degree Days 10 (Base 50)    
Moisture  
Dew Point 50 °F    
Average Humidity 74    
Maximum Humidity 100    
Minimum Humidity 40    
Precipitation  
Precipitation 0.00 in - - ()
Sea Level Pressure  
Sea Level Pressure 30.34 in    
Wind  
Wind Speed 3 mph (East)    
Max Wind Speed 7 mph    
Max Gust Speed -    
Visibility 10 miles    
Events      
Averages and records for this station are not official NWS values.
T = Trace of Precipitation, MM = Missing Value Source: NWS Daily Summary

Daily Weather History Graph

Daily Weather History Graph

Search for Another Location

Airport or City:

Astronomy

Aug. 24, 2013 Rise Set
Actual Time 6:30 AM EDT 8:00 PM EDT
Civil Twilight 6:01 AM EDT 8:29 PM EDT
Nautical Twilight 5:25 AM EDT 9:04 PM EDT
Astronomical Twilight 4:47 AM EDT 9:42 PM EDT
Moon 9:47 PM EDT (8/24) 10:34 AM EDT (8/24)
Length of Visible Light 14h 28m
Length of Day
13h 29m
Waning Gibbous, 84% of the Moon is Illuminated
Aug 24
Waning Gibbous
Aug 28
Last Quarter
Sep 5
New
Sep 12
First Quarter
Sep 19
Full

Hourly Weather History & Observations

Time (EDT) Temp. Dew Point Humidity Pressure Visibility Wind Dir Wind Speed Gust Speed Precip Events Conditions
12:15 AM 51.8 °F 48.2 °F 88% 30.25 in 10.0 mi East 3.5 mph - N/A   Clear
12:35 AM 51.8 °F 50.0 °F 94% 30.25 in 10.0 mi Calm Calm - N/A   Clear
12:55 AM 51.8 °F 50.0 °F 94% 30.26 in 10.0 mi Calm Calm - N/A   Clear
1:15 AM 51.8 °F 48.2 °F 88% 30.26 in 10.0 mi Calm Calm - N/A   Clear
1:35 AM 51.8 °F 48.2 °F 88% 30.26 in 10.0 mi Calm Calm - N/A   Clear
1:55 AM 50.0 °F 50.0 °F 100% 30.26 in 10.0 mi Calm Calm - N/A   Clear
2:15 AM 51.8 °F 50.0 °F 94% 30.26 in 10.0 mi ENE 3.5 mph - N/A   Clear
2:35 AM 51.8 °F 50.0 °F 94% 30.26 in 10.0 mi NE 3.5 mph - N/A   Clear
2:55 AM 51.8 °F 50.0 °F 94% 30.26 in 10.0 mi Calm Calm - N/A   Clear
3:15 AM 51.8 °F 50.0 °F 94% 30.27 in 10.0 mi East 3.5 mph - N/A   Clear
3:35 AM 50.0 °F 48.2 °F 94% 30.28 in 10.0 mi East 3.5 mph - N/A   Clear
3:55 AM 50.0 °F 48.2 °F 94% 30.28 in 10.0 mi Calm Calm - N/A   Clear
4:15 AM 50.0 °F 48.2 °F 94% 30.28 in 10.0 mi Calm Calm - N/A   Clear
4:35 AM 50.0 °F 48.2 °F 94% 30.29 in 10.0 mi Calm Calm - N/A   Scattered Clouds
4:55 AM 50.0 °F 50.0 °F 100% 30.30 in 10.0 mi Calm Calm - N/A   Mostly Cloudy
5:15 AM 50.0 °F 48.2 °F 94% 30.30 in 10.0 mi East 3.5 mph - N/A   Scattered Clouds
5:35 AM 50.0 °F 48.2 °F 94% 30.30 in 10.0 mi Calm Calm - N/A   Clear
5:55 AM 50.0 °F 48.2 °F 94% 30.32 in 10.0 mi Calm Calm - N/A   Clear
6:15 AM 48.2 °F 46.4 °F 93% 30.32 in 10.0 mi East 3.5 mph - N/A   Clear
6:35 AM 48.2 °F 46.4 °F 93% 30.32 in 10.0 mi East 3.5 mph - N/A   Clear
6:55 AM 48.2 °F 48.2 °F 100% 30.33 in 10.0 mi East 3.5 mph - N/A   Clear
7:15 AM 50.0 °F 50.0 °F 100% 30.34 in 10.0 mi East 3.5 mph - N/A   Clear
7:35 AM 51.8 °F 50.0 °F 94% 30.34 in 10.0 mi East 3.5 mph - N/A   Clear
7:55 AM 51.8 °F 50.0 °F 94% 30.35 in 10.0 mi Calm Calm - N/A   Clear
8:15 AM 53.6 °F 51.8 °F 94% 30.36 in 10.0 mi East 3.5 mph - N/A   Clear
8:35 AM 55.4 °F 51.8 °F 88% 30.36 in 10.0 mi East 4.6 mph - N/A   Clear
8:55 AM 55.4 °F 51.8 °F 88% 30.36 in 10.0 mi East 5.8 mph - N/A   Clear
9:15 AM 57.2 °F 51.8 °F 82% 30.37 in 10.0 mi East 5.8 mph - N/A   Clear
9:35 AM 59.0 °F 51.8 °F 77% 30.37 in 10.0 mi East 5.8 mph - N/A   Clear
9:55 AM 60.8 °F 51.8 °F 72% 30.37 in 10.0 mi ESE 5.8 mph - N/A   Clear
10:15 AM 60.8 °F 51.8 °F 72% 30.38 in 10.0 mi ESE 5.8 mph - N/A   Clear
10:35 AM 62.6 °F 51.8 °F 68% 30.38 in 10.0 mi East 5.8 mph - N/A   Clear
10:55 AM 62.6 °F 51.8 °F 68% 30.38 in 10.0 mi ESE 5.8 mph - N/A   Clear
11:15 AM 62.6 °F 51.8 °F 68% 30.38 in 10.0 mi East 5.8 mph - N/A   Clear
11:35 AM 64.4 °F 50.0 °F 59% 30.38 in 10.0 mi Calm Calm - N/A   Clear
11:55 AM 66.2 °F 50.0 °F 56% 30.38 in 10.0 mi SE 3.5 mph - N/A   Clear
12:15 PM 64.4 °F 50.0 °F 59% 30.38 in 10.0 mi East 4.6 mph - N/A   Clear
12:35 PM 66.2 °F 50.0 °F 56% 30.37 in 10.0 mi ENE 3.5 mph - N/A   Clear
12:55 PM 66.2 °F 46.4 °F 49% 30.37 in 10.0 mi East 6.9 mph - N/A   Clear
1:15 PM 68.0 °F 50.0 °F 52% 30.37 in 10.0 mi ESE 6.9 mph - N/A   Clear
1:35 PM 68.0 °F 50.0 °F 52% 30.37 in 10.0 mi ESE 5.8 mph - N/A   Clear
1:55 PM 68.0 °F 50.0 °F 52% 30.37 in 10.0 mi Calm Calm - N/A   Clear
2:15 PM 68.0 °F 50.0 °F 52% 30.36 in 10.0 mi East 6.9 mph - N/A   Clear
2:35 PM 69.8 °F 50.0 °F 49% 30.36 in 10.0 mi ESE 4.6 mph - N/A   Clear
2:55 PM 69.8 °F 48.2 °F 46% 30.36 in 10.0 mi East 5.8 mph - N/A   Clear
3:15 PM 69.8 °F 44.6 °F 40% 30.35 in 10.0 mi Calm Calm - N/A   Clear
3:35 PM 69.8 °F 48.2 °F 46% 30.35 in 10.0 mi East 5.8 mph - N/A   Clear
3:55 PM 69.8 °F 50.0 °F 49% 30.35 in 10.0 mi East 4.6 mph - N/A   Clear
4:15 PM 69.8 °F 50.0 °F 49% 30.35 in 10.0 mi Calm Calm - N/A   Clear
4:35 PM 71.6 °F 50.0 °F 46% 30.35 in 10.0 mi SE 4.6 mph - N/A   Clear
4:55 PM 69.8 °F 48.2 °F 46% 30.35 in 10.0 mi Calm Calm - N/A   Clear
5:15 PM 69.8 °F 50.0 °F 49% 30.35 in 10.0 mi East 3.5 mph - N/A   Clear
5:35 PM 69.8 °F 50.0 °F 49% 30.35 in 10.0 mi East 4.6 mph - N/A   Clear
5:55 PM 69.8 °F 50.0 °F 49% 30.35 in 10.0 mi Calm Calm - N/A   Clear
6:15 PM 69.8 °F 50.0 °F 49% 30.35 in 10.0 mi NE 4.6 mph - N/A   Clear
6:35 PM 68.0 °F 50.0 °F 52% 30.35 in 10.0 mi NE 3.5 mph - N/A   Clear
6:55 PM 68.0 °F 51.8 °F 56% 30.35 in 10.0 mi Calm Calm - N/A   Clear
7:15 PM 66.2 °F 50.0 °F 56% 30.35 in 10.0 mi Calm Calm - N/A   Clear
7:35 PM 64.4 °F 51.8 °F 64% 30.35 in 10.0 mi ENE 3.5 mph - N/A   Clear
7:55 PM 62.6 °F 51.8 °F 68% 30.35 in 10.0 mi East 4.6 mph - N/A   Clear
8:15 PM 60.8 °F 51.8 °F 72% 30.36 in 10.0 mi ENE 4.6 mph - N/A   Clear
8:35 PM 60.8 °F 51.8 °F 72% 30.36 in 10.0 mi ENE 5.8 mph - N/A   Clear
8:55 PM 60.8 °F 50.0 °F 68% 30.37 in 10.0 mi ENE 5.8 mph - N/A   Clear
9:15 PM 59.0 °F 51.8 °F 77% 30.37 in 10.0 mi ENE 5.8 mph - N/A   Clear
9:35 PM 59.0 °F 51.8 °F 77% 30.38 in 10.0 mi ENE 4.6 mph - N/A   Clear
9:55 PM 57.2 °F 51.8 °F 82% 30.39 in 10.0 mi ENE 5.8 mph - N/A   Clear
10:15 PM 59.0 °F 51.8 °F 77% 30.37 in 10.0 mi East 6.9 mph - N/A   Clear
10:35 PM 57.2 °F 51.8 °F 82% 30.37 in 10.0 mi East 6.9 mph - N/A   Clear
10:55 PM 57.2 °F 51.8 °F 82% 30.37 in 10.0 mi East 6.9 mph - N/A   Clear
11:15 PM 57.2 °F 51.8 °F 82% 30.37 in 10.0 mi East 6.9 mph - N/A   Clear
11:35 PM 55.4 °F 51.8 °F 88% 30.37 in 10.0 mi East 5.8 mph - N/A   Clear
11:55 PM 55.4 °F 51.8 °F 88% 30.37 in 10.0 mi Calm Calm - N/A   Clear